Time,TemperatureF,DewpointF,PressureIn,WindDirection,WindDirectionDegrees,WindSpeedMPH,WindSpeedGustMPH,Humidity,HourlyPrecipIn,Conditions,Clouds,dailyrainin,SoftwareType,DateUTC
2013-06-06 00:01:00,57.7,52.3,29.97,NNE,28,7.0,12.0,82,0.00,,,0.01,meteohub,2013-06-06 04:01:00,
2013-06-06 00:02:00,57.7,52.3,29.97,ENE,75,5.0,12.0,82,0.00,,,0.01,meteohub,2013-06-06 04:02:00,
2013-06-06 00:07:00,57.6,52.5,29.97,ENE,70,2.0,12.0,83,0.00,,,0.01,meteohub,2013-06-06 04:07:00,
2013-06-06 00:12:00,57.6,52.5,29.97,East,83,4.0,9.0,83,0.00,,,0.00,meteohub,2013-06-06 04:12:00,
2013-06-06 00:17:00,57.6,52.5,29.97,ENE,78,3.0,9.0,83,0.00,,,0.00,meteohub,2013-06-06 04:17:00,
2013-06-06 00:22:00,57.6,52.5,29.97,East,84,5.0,9.0,83,0.00,,,0.00,meteohub,2013-06-06 04:22:00,
2013-06-06 00:27:00,57.4,52.3,29.97,ENE,57,6.0,9.0,83,0.00,,,0.00,meteohub,2013-06-06 04:27:00,
2013-06-06 00:32:00,57.4,52.3,29.97,ESE,102,6.0,10.0,83,0.00,,,0.00,meteohub,2013-06-06 04:32:00,
2013-06-06 00:37:00,57.4,52.5,29.97,East,81,8.0,10.0,84,0.00,,,0.00,meteohub,2013-06-06 04:37:00,
2013-06-06 00:42:00,57.2,52.3,29.97,East,96,9.0,10.0,84,0.00,,,0.00,meteohub,2013-06-06 04:42:00,
2013-06-06 00:47:00,57.0,52.5,29.97,East,85,8.0,10.0,85,0.00,,,0.00,meteohub,2013-06-06 04:47:00,
2013-06-06 00:52:00,56.8,52.7,29.96,ENE,62,6.0,11.0,86,0.01,,,0.00,meteohub,2013-06-06 04:52:00,
2013-06-06 00:57:00,56.7,52.5,29.96,ENE,65,5.0,13.0,86,0.01,,,0.01,meteohub,2013-06-06 04:57:00,
2013-06-06 01:02:00,56.7,52.9,29.96,ENE,74,6.0,13.0,87,0.01,,,0.01,meteohub,2013-06-06 05:02:00,
2013-06-06 01:08:00,56.5,52.7,29.96,ENE,65,8.0,13.0,87,0.01,,,0.01,meteohub,2013-06-06 05:08:00,
2013-06-06 01:13:00,56.5,52.7,29.96,East,79,8.0,13.0,87,0.01,,,0.01,meteohub,2013-06-06 05:13:00,
2013-06-06 01:18:00,56.5,52.9,29.96,ENE,77,7.0,13.0,88,0.02,,,0.02,meteohub,2013-06-06 05:18:00,
2013-06-06 01:23:00,56.1,52.7,29.96,East,100,7.0,12.0,88,0.02,,,0.02,meteohub,2013-06-06 05:23:00,
2013-06-06 01:28:00,56.1,52.9,29.96,ENE,68,5.0,12.0,89,0.02,,,0.02,meteohub,2013-06-06 05:28:00,
2013-06-06 01:33:00,56.1,52.9,29.96,ENE,77,7.0,12.0,89,0.02,,,0.02,meteohub,2013-06-06 05:33:00,
2013-06-06 01:38:00,55.9,52.7,29.96,East,101,9.0,12.0,89,0.02,,,0.02,meteohub,2013-06-06 05:38:00,
2013-06-06 01:43:00,55.9,52.7,29.96,East,85,5.0,14.0,89,0.03,,,0.03,meteohub,2013-06-06 05:43:00,
2013-06-06 01:48:00,55.9,53.1,29.96,East,82,6.0,14.0,90,0.02,,,0.03,meteohub,2013-06-06 05:48:00,
2013-06-06 01:53:00,55.9,53.1,29.95,ENE,65,8.0,14.0,90,0.02,,,0.03,meteohub,2013-06-06 05:53:00,
2013-06-06 01:58:00,55.8,52.9,29.95,East,91,7.0,13.0,90,0.02,,,0.03,meteohub,2013-06-06 05:58:00,
2013-06-06 02:03:00,55.8,52.9,29.95,East,82,14.0,14.0,90,0.02,,,0.03,meteohub,2013-06-06 06:03:00,
2013-06-06 02:08:00,55.8,53.2,29.95,ENE,77,5.0,13.0,91,0.02,,,0.03,meteohub,2013-06-06 06:08:00,
2013-06-06 02:13:00,55.8,53.2,29.95,East,89,5.0,14.0,91,0.01,,,0.03,meteohub,2013-06-06 06:13:00,
2013-06-06 02:18:00,55.6,53.1,29.95,ENE,77,8.0,14.0,91,0.02,,,0.03,meteohub,2013-06-06 06:18:00,
2013-06-06 02:23:00,55.6,53.1,29.95,ESE,105,7.0,12.0,91,0.02,,,0.04,meteohub,2013-06-06 06:23:00,
2013-06-06 02:28:00,55.6,53.2,29.94,ENE,74,8.0,12.0,92,0.02,,,0.04,meteohub,2013-06-06 06:28:00,
2013-06-06 02:34:00,55.4,53.1,29.94,East,88,11.0,14.0,92,0.02,,,0.04,meteohub,2013-06-06 06:34:00,
2013-06-06 02:39:00,55.4,53.1,29.94,East,96,12.0,14.0,92,0.02,,,0.04,meteohub,2013-06-06 06:39:00,
2013-06-06 02:44:00,55.4,53.1,29.93,East,86,7.0,14.0,92,0.01,,,0.04,meteohub,2013-06-06 06:44:00,
2013-06-06 02:49:00,55.4,52.9,29.93,East,88,11.0,16.0,91,0.01,,,0.04,meteohub,2013-06-06 06:49:00,
2013-06-06 02:54:00,55.4,52.9,29.93,East,91,10.0,16.0,91,0.01,,,0.04,meteohub,2013-06-06 06:54:00,
2013-06-06 02:59:00,55.4,52.9,29.93,East,84,6.0,16.0,91,0.01,,,0.04,meteohub,2013-06-06 06:59:00,
2013-06-06 03:04:00,55.2,52.7,29.92,East,87,7.0,13.0,91,0.01,,,0.04,meteohub,2013-06-06 07:04:00,
2013-06-06 03:09:00,55.2,52.7,29.92,East,101,10.0,13.0,91,0.01,,,0.04,meteohub,2013-06-06 07:09:00,
2013-06-06 03:14:00,55.2,52.7,29.91,ESE,105,6.0,14.0,91,0.01,,,0.04,meteohub,2013-06-06 07:14:00,
2013-06-06 03:19:00,55.2,52.7,29.92,East,86,7.0,14.0,91,0.00,,,0.04,meteohub,2013-06-06 07:19:00,
2013-06-06 03:24:00,55.2,52.3,29.91,ESE,105,7.0,15.0,90,0.00,,,0.04,meteohub,2013-06-06 07:24:00,
2013-06-06 03:29:00,55.2,52.3,29.91,ENE,70,6.0,15.0,90,0.00,,,0.04,meteohub,2013-06-06 07:29:00,
2013-06-06 03:34:00,55.2,52.3,29.91,East,84,5.0,15.0,90,0.00,,,0.04,meteohub,2013-06-06 07:34:00,
2013-06-06 03:39:00,55.2,52.0,29.91,ENE,77,6.0,13.0,89,0.00,,,0.04,meteohub,2013-06-06 07:39:00,
2013-06-06 03:44:00,55.2,52.0,29.91,East,99,4.0,13.0,89,0.00,,,0.04,meteohub,2013-06-06 07:44:00,
2013-06-06 03:49:00,55.2,52.0,29.91,SE,124,6.0,12.0,89,0.00,,,0.04,meteohub,2013-06-06 07:49:00,
2013-06-06 03:54:00,55.2,52.0,29.92,ESE,115,5.0,11.0,89,0.00,,,0.04,meteohub,2013-06-06 07:54:00,
2013-06-06 03:59:00,55.2,52.0,29.92,ENE,74,3.0,11.0,89,0.00,,,0.04,meteohub,2013-06-06 07:59:00,
2013-06-06 04:04:00,55.2,52.0,29.92,ESE,117,3.0,11.0,89,0.00,,,0.04,meteohub,2013-06-06 08:04:00,
2013-06-06 04:09:00,55.2,52.0,29.92,East,95,3.0,11.0,89,0.00,,,0.04,meteohub,2013-06-06 08:09:00,
2013-06-06 04:15:00,55.2,51.8,29.92,ESE,115,1.0,8.0,88,0.00,,,0.04,meteohub,2013-06-06 08:15:00,
2013-06-06 04:20:00,55.2,51.8,29.92,East,101,2.0,7.0,88,0.00,,,0.04,meteohub,2013-06-06 08:20:00,
2013-06-06 04:25:00,55.2,51.8,29.91,East,89,4.0,7.0,88,0.00,,,0.04,meteohub,2013-06-06 08:25:00,
2013-06-06 04:30:00,55.2,51.8,29.91,East,90,6.0,7.0,88,0.00,,,0.04,meteohub,2013-06-06 08:30:00,
2013-06-06 04:35:00,55.2,51.8,29.91,East,101,4.0,10.0,88,0.00,,,0.04,meteohub,2013-06-06 08:35:00,
2013-06-06 04:40:00,55.2,51.8,29.91,East,79,2.0,10.0,88,0.00,,,0.04,meteohub,2013-06-06 08:40:00,
2013-06-06 04:45:00,55.0,51.6,29.90,ENE,68,6.0,10.0,88,0.00,,,0.04,meteohub,2013-06-06 08:45:00,
2013-06-06 04:50:00,55.0,51.6,29.90,ENE,68,2.0,8.0,88,0.00,,,0.04,meteohub,2013-06-06 08:50:00,
2013-06-06 04:55:00,55.0,51.6,29.90,ENE,77,5.0,8.0,88,0.00,,,0.04,meteohub,2013-06-06 08:55:00,
2013-06-06 05:00:00,55.0,51.6,29.90,ENE,71,5.0,8.0,88,0.00,,,0.04,meteohub,2013-06-06 09:00:00,
2013-06-06 05:05:00,55.0,51.6,29.90,ENE,70,3.0,8.0,88,0.00,,,0.04,meteohub,2013-06-06 09:05:00,
2013-06-06 05:10:00,55.0,51.6,29.90,East,84,4.0,8.0,88,0.00,,,0.04,meteohub,2013-06-06 09:10:00,
2013-06-06 05:15:00,54.9,51.6,29.90,East,83,3.0,9.0,89,0.00,,,0.04,meteohub,2013-06-06 09:15:00,
2013-06-06 05:20:00,54.9,51.6,29.90,East,84,5.0,9.0,89,0.00,,,0.04,meteohub,2013-06-06 09:20:00,
2013-06-06 05:25:00,54.9,51.6,29.90,East,91,5.0,7.0,89,0.00,,,0.04,meteohub,2013-06-06 09:25:00,
2013-06-06 05:30:00,54.7,51.4,29.89,East,96,5.0,7.0,89,0.00,,,0.04,meteohub,2013-06-06 09:30:00,
2013-06-06 05:35:00,54.7,51.4,29.89,East,85,3.0,8.0,89,0.00,,,0.04,meteohub,2013-06-06 09:35:00,
2013-06-06 05:40:00,54.7,51.8,29.89,East,83,2.0,8.0,90,0.00,,,0.04,meteohub,2013-06-06 09:40:00,
2013-06-06 05:41:00,54.7,51.8,29.89,NE,51,5.0,8.0,90,0.00,,,0.04,meteohub,2013-06-06 09:41:00,
2013-06-06 05:47:00,54.7,51.8,29.89,NE,39,2.0,8.0,90,0.00,,,0.04,meteohub,2013-06-06 09:47:00,
2013-06-06 05:57:00,54.7,51.8,29.90,ENE,78,4.0,7.0,90,0.00,,,0.04,meteohub,2013-06-06 09:57:00,
2013-06-06 06:02:00,54.7,51.8,29.90,East,84,3.0,7.0,90,0.00,,,0.04,meteohub,2013-06-06 10:02:00,
2013-06-06 06:07:00,54.7,51.8,29.90,ENE,73,4.0,6.0,90,0.00,,,0.04,meteohub,2013-06-06 10:07:00,
2013-06-06 06:12:00,54.7,51.8,29.90,ENE,77,2.0,6.0,90,0.00,,,0.04,meteohub,2013-06-06 10:12:00,
2013-06-06 06:17:00,54.7,51.8,29.90,East,79,4.0,7.0,90,0.00,,,0.04,meteohub,2013-06-06 10:17:00,
2013-06-06 06:22:00,54.7,51.8,29.90,East,84,4.0,7.0,90,0.00,,,0.04,meteohub,2013-06-06 10:22:00,
2013-06-06 06:27:00,54.7,51.4,29.90,East,93,5.0,7.0,89,0.00,,,0.04,meteohub,2013-06-06 10:27:00,
2013-06-06 06:32:00,54.7,51.4,29.90,ENE,77,4.0,7.0,89,0.00,,,0.04,meteohub,2013-06-06 10:32:00,
2013-06-06 06:37:00,54.7,51.4,29.90,ENE,65,4.0,7.0,89,0.00,,,0.04,meteohub,2013-06-06 10:37:00,
2013-06-06 06:42:00,54.7,51.4,29.90,East,84,3.0,8.0,89,0.00,,,0.04,meteohub,2013-06-06 10:42:00,
2013-06-06 06:47:00,54.7,51.4,29.90,NE,50,2.0,8.0,89,0.00,,,0.04,meteohub,2013-06-06 10:47:00,
2013-06-06 06:52:00,54.7,51.4,29.90,East,99,5.0,8.0,89,0.00,,,0.04,meteohub,2013-06-06 10:52:00,
2013-06-06 06:57:00,54.7,51.4,29.90,ENE,67,3.0,8.0,89,0.00,,,0.04,meteohub,2013-06-06 10:57:00,
2013-06-06 07:02:00,54.5,51.3,29.90,NE,55,4.0,8.0,89,0.00,,,0.04,meteohub,2013-06-06 11:02:00,
2013-06-06 07:07:00,54.5,51.6,29.90,ENE,70,6.0,8.0,90,0.00,,,0.04,meteohub,2013-06-06 11:07:00,
2013-06-06 07:12:00,54.5,51.6,29.89,East,79,4.0,9.0,90,0.00,,,0.04,meteohub,2013-06-06 11:12:00,
2013-06-06 07:17:00,54.5,51.6,29.89,ENE,71,2.0,9.0,90,0.00,,,0.04,meteohub,2013-06-06 11:17:00,
2013-06-06 07:22:00,54.7,51.4,29.88,ENE,65,5.0,9.0,89,0.00,,,0.04,meteohub,2013-06-06 11:22:00,
2013-06-06 07:27:00,54.7,51.3,29.88,ENE,77,6.0,9.0,88,0.00,,,0.04,meteohub,2013-06-06 11:27:00,
2013-06-06 07:32:00,54.7,51.3,29.89,East,96,9.0,13.0,88,0.00,,,0.04,meteohub,2013-06-06 11:32:00,
2013-06-06 07:37:00,54.9,51.4,29.89,East,82,4.0,13.0,88,0.00,,,0.04,meteohub,2013-06-06 11:37:00,
2013-06-06 07:43:00,54.9,51.1,29.88,ENE,65,7.0,13.0,87,0.00,,,0.04,meteohub,2013-06-06 11:43:00,
2013-06-06 07:48:00,54.9,51.1,29.89,ENE,60,5.0,13.0,87,0.00,,,0.04,meteohub,2013-06-06 11:48:00,
2013-06-06 07:53:00,55.0,51.3,29.89,NE,53,5.0,13.0,87,0.00,,,0.04,meteohub,2013-06-06 11:53:00,
2013-06-06 07:58:00,54.9,51.1,29.89,East,89,5.0,13.0,87,0.00,,,0.04,meteohub,2013-06-06 11:58:00,
2013-06-06 08:03:00,55.0,51.3,29.89,East,88,6.0,13.0,87,0.00,,,0.04,meteohub,2013-06-06 12:03:00,
2013-06-06 08:08:00,55.0,51.6,29.89,East,84,2.0,10.0,88,0.00,,,0.04,meteohub,2013-06-06 12:08:00,
2013-06-06 08:13:00,55.0,51.6,29.89,NE,46,2.0,10.0,88,0.00,,,0.04,meteohub,2013-06-06 12:13:00,
2013-06-06 08:18:00,55.0,51.6,29.89,NE,39,3.0,8.0,88,0.00,,,0.04,meteohub,2013-06-06 12:18:00,
2013-06-06 08:23:00,54.9,51.4,29.89,ENE,65,4.0,8.0,88,0.00,,,0.04,meteohub,2013-06-06 12:23:00,
2013-06-06 08:28:00,54.9,51.4,29.89,East,92,3.0,8.0,88,0.00,,,0.04,meteohub,2013-06-06 12:28:00,
2013-06-06 08:33:00,54.9,51.6,29.89,ENE,70,2.0,8.0,89,0.00,,,0.05,meteohub,2013-06-06 12:33:00,
2013-06-06 08:38:00,54.9,51.6,29.89,ENE,70,5.0,8.0,89,0.01,,,0.05,meteohub,2013-06-06 12:38:00,
2013-06-06 08:43:00,54.9,51.6,29.90,East,82,2.0,8.0,89,0.01,,,0.05,meteohub,2013-06-06 12:43:00,
2013-06-06 08:48:00,54.9,51.6,29.89,East,90,3.0,7.0,89,0.01,,,0.05,meteohub,2013-06-06 12:48:00,
2013-06-06 08:53:00,54.9,51.6,29.90,NE,47,3.0,7.0,89,0.01,,,0.05,meteohub,2013-06-06 12:53:00,
2013-06-06 08:58:00,54.9,51.6,29.90,ENE,65,3.0,8.0,89,0.01,,,0.05,meteohub,2013-06-06 12:58:00,
2013-06-06 09:03:00,55.0,51.8,29.90,North,6,2.0,8.0,89,0.01,,,0.05,meteohub,2013-06-06 13:03:00,
2013-06-06 09:08:00,55.0,51.8,29.90,North,5,2.0,8.0,89,0.01,,,0.05,meteohub,2013-06-06 13:08:00,
2013-06-06 09:13:00,55.0,51.8,29.90,North,11,5.0,8.0,89,0.01,,,0.05,meteohub,2013-06-06 13:13:00,
2013-06-06 09:18:00,55.2,52.0,29.90,NE,55,3.0,7.0,89,0.01,,,0.05,meteohub,2013-06-06 13:18:00,
2013-06-06 09:24:00,55.6,52.3,29.90,East,101,2.0,7.0,89,0.01,,,0.05,meteohub,2013-06-06 13:24:00,
2013-06-06 09:29:00,55.6,52.2,29.90,NE,54,2.0,8.0,88,0.00,,,0.05,meteohub,2013-06-06 13:29:00,
2013-06-06 09:34:00,55.8,52.3,29.90,NE,40,1.0,8.0,88,0.00,,,0.05,meteohub,2013-06-06 13:34:00,
2013-06-06 09:39:00,55.8,52.3,29.90,NE,41,7.0,8.0,88,0.00,,,0.05,meteohub,2013-06-06 13:39:00,
2013-06-06 09:44:00,55.8,52.0,29.90,ENE,74,3.0,8.0,87,0.00,,,0.05,meteohub,2013-06-06 13:44:00,
2013-06-06 09:49:00,55.8,52.0,29.90,ENE,68,8.0,12.0,87,0.00,,,0.05,meteohub,2013-06-06 13:49:00,
2013-06-06 09:54:00,55.8,52.0,29.90,ENE,74,3.0,12.0,87,0.00,,,0.05,meteohub,2013-06-06 13:54:00,
2013-06-06 09:59:00,55.8,51.6,29.90,NNE,32,7.0,10.0,86,0.00,,,0.05,meteohub,2013-06-06 13:59:00,
2013-06-06 10:04:00,55.8,51.6,29.91,NNE,23,4.0,10.0,86,0.00,,,0.05,meteohub,2013-06-06 14:04:00,
2013-06-06 10:09:00,55.8,51.6,29.91,NNE,15,4.0,7.0,86,0.00,,,0.05,meteohub,2013-06-06 14:09:00,
2013-06-06 10:14:00,55.9,52.2,29.91,NNE,32,2.0,7.0,87,0.00,,,0.05,meteohub,2013-06-06 14:14:00,
2013-06-06 10:19:00,55.9,51.8,29.91,ENE,64,2.0,7.0,86,0.00,,,0.05,meteohub,2013-06-06 14:19:00,
2013-06-06 10:24:00,55.8,52.0,29.91,ESE,110,1.0,7.0,87,0.00,,,0.05,meteohub,2013-06-06 14:24:00,
2013-06-06 10:29:00,55.9,52.2,29.91,ENE,77,2.0,9.0,87,0.00,,,0.05,meteohub,2013-06-06 14:29:00,
2013-06-06 10:34:00,55.9,52.2,29.91,East,91,5.0,9.0,87,0.00,,,0.05,meteohub,2013-06-06 14:34:00,
2013-06-06 10:39:00,55.9,51.8,29.91,NE,40,3.0,9.0,86,0.00,,,0.05,meteohub,2013-06-06 14:39:00,
2013-06-06 10:44:00,55.9,51.8,29.92,ENE,58,2.0,9.0,86,0.00,,,0.05,meteohub,2013-06-06 14:44:00,
2013-06-06 10:49:00,55.9,51.8,29.92,ENE,62,4.0,9.0,86,0.00,,,0.05,meteohub,2013-06-06 14:49:00,
2013-06-06 10:54:00,55.9,52.2,29.92,ENE,58,4.0,9.0,87,0.01,,,0.06,meteohub,2013-06-06 14:54:00,
2013-06-06 11:00:00,55.9,52.2,29.91,East,83,9.0,9.0,87,0.01,,,0.06,meteohub,2013-06-06 15:00:00,
2013-06-06 11:05:00,55.8,51.6,29.91,ENE,71,8.0,9.0,86,0.01,,,0.06,meteohub,2013-06-06 15:05:00,
2013-06-06 11:10:00,55.8,52.0,29.90,East,86,9.0,11.0,87,0.01,,,0.06,meteohub,2013-06-06 15:10:00,
2013-06-06 11:15:00,55.6,52.2,29.89,ENE,68,7.0,13.0,88,0.02,,,0.07,meteohub,2013-06-06 15:15:00,
2013-06-06 11:20:00,55.6,52.2,29.90,East,93,8.0,13.0,88,0.02,,,0.07,meteohub,2013-06-06 15:20:00,
2013-06-06 11:25:00,55.8,52.3,29.90,ENE,73,8.0,13.0,88,0.02,,,0.07,meteohub,2013-06-06 15:25:00,
2013-06-06 11:30:00,55.9,52.5,29.90,ENE,74,6.0,15.0,88,0.02,,,0.07,meteohub,2013-06-06 15:30:00,
2013-06-06 11:35:00,56.1,52.7,29.89,East,79,6.0,13.0,88,0.03,,,0.08,meteohub,2013-06-06 15:35:00,
2013-06-06 11:40:00,56.5,52.9,29.89,ENE,68,9.0,13.0,88,0.03,,,0.08,meteohub,2013-06-06 15:40:00,
2013-06-06 11:45:00,56.8,53.1,29.89,East,79,8.0,13.0,87,0.02,,,0.08,meteohub,2013-06-06 15:45:00,
2013-06-06 11:50:00,57.4,52.9,29.90,East,82,6.0,13.0,85,0.02,,,0.08,meteohub,2013-06-06 15:50:00,
2013-06-06 11:55:00,57.9,53.1,29.90,East,92,4.0,11.0,84,0.02,,,0.08,meteohub,2013-06-06 15:55:00,
2013-06-06 12:00:00,58.8,54.3,29.90,North,1,4.0,11.0,85,0.02,,,0.08,meteohub,2013-06-06 16:00:00,
2013-06-06 12:05:00,59.2,54.0,29.89,NNW,346,3.0,11.0,83,0.02,,,0.08,meteohub,2013-06-06 16:05:00,
2013-06-06 12:10:00,59.4,53.6,29.89,East,82,5.0,10.0,81,0.02,,,0.08,meteohub,2013-06-06 16:10:00,
2013-06-06 12:15:00,59.5,53.4,29.89,ENE,57,6.0,10.0,80,0.01,,,0.08,meteohub,2013-06-06 16:15:00,
2013-06-06 12:16:00,59.5,53.4,29.89,East,89,6.0,10.0,80,0.01,,,0.08,meteohub,2013-06-06 16:16:00,
2013-06-06 12:31:00,60.1,53.2,29.88,NE,47,4.0,14.0,78,0.01,,,0.08,meteohub,2013-06-06 16:31:00,
2013-06-06 12:37:00,60.3,53.1,29.88,NE,46,5.0,13.0,77,0.00,,,0.08,meteohub,2013-06-06 16:37:00,
2013-06-06 12:42:00,60.6,53.8,29.88,East,81,3.0,13.0,78,0.00,,,0.08,meteohub,2013-06-06 16:42:00,
2013-06-06 12:47:00,61.2,54.0,29.87,NE,34,4.0,12.0,77,0.00,,,0.08,meteohub,2013-06-06 16:47:00,
2013-06-06 12:52:00,61.5,53.2,29.88,NE,47,4.0,12.0,74,0.00,,,0.08,meteohub,2013-06-06 16:52:00,
2013-06-06 12:57:00,61.7,53.2,29.88,ENE,64,6.0,13.0,74,0.00,,,0.08,meteohub,2013-06-06 16:57:00,
2013-06-06 13:02:00,62.1,54.0,29.87,ENE,57,5.0,13.0,75,0.00,,,0.08,meteohub,2013-06-06 17:02:00,
2013-06-06 13:07:00,62.4,53.6,29.87,ENE,78,7.0,13.0,73,0.00,,,0.08,meteohub,2013-06-06 17:07:00,
2013-06-06 13:12:00,63.0,54.1,29.87,East,82,4.0,13.0,73,0.00,,,0.08,meteohub,2013-06-06 17:12:00,
2013-06-06 13:17:00,63.5,55.0,29.87,NE,41,9.0,11.0,74,0.00,,,0.08,meteohub,2013-06-06 17:17:00,
2013-06-06 13:22:00,63.7,53.2,29.87,NNE,23,5.0,11.0,69,0.00,,,0.08,meteohub,2013-06-06 17:22:00,
2013-06-06 13:27:00,63.7,53.2,29.88,East,87,11.0,11.0,69,0.00,,,0.08,meteohub,2013-06-06 17:27:00,
2013-06-06 13:32:00,63.3,52.5,29.88,NE,52,5.0,14.0,68,0.00,,,0.08,meteohub,2013-06-06 17:32:00,
2013-06-06 13:37:00,63.5,53.1,29.87,North,353,7.0,14.0,69,0.00,,,0.08,meteohub,2013-06-06 17:37:00,
2013-06-06 13:42:00,63.5,53.1,29.87,ENE,60,12.0,13.0,69,0.00,,,0.08,meteohub,2013-06-06 17:42:00,
2013-06-06 13:47:00,63.7,53.2,29.87,ENE,67,6.0,13.0,69,0.00,,,0.08,meteohub,2013-06-06 17:47:00,
2013-06-06 13:52:00,63.7,52.9,29.87,ENE,58,2.0,12.0,68,0.00,,,0.08,meteohub,2013-06-06 17:52:00,
2013-06-06 13:58:00,63.9,53.1,29.87,East,90,6.0,12.0,68,0.00,,,0.08,meteohub,2013-06-06 17:58:00,
2013-06-06 14:03:00,63.9,53.1,29.87,NNE,32,4.0,10.0,68,0.00,,,0.08,meteohub,2013-06-06 18:03:00,
2013-06-06 14:08:00,63.9,53.1,29.87,ENE,78,5.0,10.0,68,0.00,,,0.08,meteohub,2013-06-06 18:08:00,
2013-06-06 14:13:00,63.9,53.1,29.87,NE,47,4.0,10.0,68,0.00,,,0.08,meteohub,2013-06-06 18:13:00,
2013-06-06 14:18:00,63.7,53.2,29.87,ENE,58,5.0,10.0,69,0.00,,,0.08,meteohub,2013-06-06 18:18:00,
2013-06-06 14:23:00,63.9,53.4,29.87,NE,45,4.0,10.0,69,0.00,,,0.08,meteohub,2013-06-06 18:23:00,
2013-06-06 14:28:00,63.9,54.3,29.87,NE,49,1.0,10.0,71,0.00,,,0.08,meteohub,2013-06-06 18:28:00,
2013-06-06 14:33:00,63.9,54.3,29.87,ENE,71,2.0,10.0,71,0.00,,,0.08,meteohub,2013-06-06 18:33:00,
2013-06-06 14:38:00,63.9,54.3,29.87,NNE,26,5.0,9.0,71,0.00,,,0.08,meteohub,2013-06-06 18:38:00,
2013-06-06 14:43:00,64.0,55.2,29.87,NE,49,3.0,10.0,73,0.00,,,0.08,meteohub,2013-06-06 18:43:00,
2013-06-06 14:48:00,64.0,54.9,29.87,NNE,15,6.0,10.0,72,0.00,,,0.08,meteohub,2013-06-06 18:48:00,
2013-06-06 14:53:00,64.0,55.2,29.87,NE,49,5.0,10.0,73,0.00,,,0.08,meteohub,2013-06-06 18:53:00,
2013-06-06 14:58:00,64.6,55.4,29.87,NE,46,5.0,9.0,72,0.00,,,0.08,meteohub,2013-06-06 18:58:00,
2013-06-06 15:03:00,64.6,55.0,29.87,NNE,18,2.0,9.0,71,0.00,,,0.08,meteohub,2013-06-06 19:03:00,
2013-06-06 15:08:00,64.2,55.0,29.87,ENE,74,8.0,9.0,72,0.00,,,0.08,meteohub,2013-06-06 19:08:00,
2013-06-06 15:13:00,64.0,55.6,29.87,NE,41,8.0,10.0,74,0.00,,,0.08,meteohub,2013-06-06 19:13:00,
2013-06-06 15:18:00,63.7,55.2,29.87,NNW,334,4.0,10.0,74,0.00,,,0.08,meteohub,2013-06-06 19:18:00,
2013-06-06 15:23:00,63.7,55.6,29.87,NNW,347,5.0,11.0,75,0.00,,,0.08,meteohub,2013-06-06 19:23:00,
2013-06-06 15:28:00,63.3,55.2,29.87,NNE,12,5.0,11.0,75,0.00,,,0.08,meteohub,2013-06-06 19:28:00,
2013-06-06 15:36:00,63.3,55.2,29.87,North,359,7.0,10.0,75,0.00,,,0.08,meteohub,2013-06-06 19:36:00,
2013-06-06 15:41:00,63.1,55.0,29.87,North,5,4.0,10.0,75,0.00,,,0.08,meteohub,2013-06-06 19:41:00,
2013-06-06 15:47:00,63.0,55.2,29.87,NE,43,6.0,11.0,76,0.00,,,0.08,meteohub,2013-06-06 19:47:00,
2013-06-06 15:52:00,62.8,55.4,29.87,ENE,60,3.0,11.0,77,0.00,,,0.08,meteohub,2013-06-06 19:52:00,
2013-06-06 15:57:00,62.6,55.6,29.87,North,1,3.0,12.0,78,0.00,,,0.08,meteohub,2013-06-06 19:57:00,
2013-06-06 16:02:00,62.4,55.8,29.87,North,1,2.0,12.0,79,0.00,,,0.08,meteohub,2013-06-06 20:02:00,
2013-06-06 16:07:00,62.2,55.9,29.87,NE,37,2.0,12.0,80,0.00,,,0.08,meteohub,2013-06-06 20:07:00,
2013-06-06 16:12:00,62.1,55.4,29.87,NE,41,3.0,12.0,79,0.00,,,0.08,meteohub,2013-06-06 20:12:00,
2013-06-06 16:17:00,62.1,55.4,29.87,NE,49,3.0,9.0,79,0.00,,,0.08,meteohub,2013-06-06 20:17:00,
2013-06-06 16:23:00,62.2,55.2,29.87,North,358,5.0,9.0,78,0.00,,,0.08,meteohub,2013-06-06 20:23:00,
2013-06-06 16:28:00,62.2,55.2,29.87,North,349,4.0,9.0,78,0.00,,,0.08,meteohub,2013-06-06 20:28:00,
2013-06-06 16:33:00,62.2,55.2,29.87,NNE,33,5.0,8.0,78,0.00,,,0.08,meteohub,2013-06-06 20:33:00,
2013-06-06 16:38:00,62.2,54.5,29.87,NE,43,4.0,8.0,76,0.00,,,0.08,meteohub,2013-06-06 20:38:00,
2013-06-06 16:43:00,62.2,55.6,29.87,NNE,32,5.0,11.0,79,0.00,,,0.08,meteohub,2013-06-06 20:43:00,
2013-06-06 16:48:00,62.2,55.6,29.87,NE,44,3.0,11.0,79,0.00,,,0.08,meteohub,2013-06-06 20:48:00,
2013-06-06 16:53:00,62.2,55.2,29.87,NNE,12,6.0,8.0,78,0.00,,,0.08,meteohub,2013-06-06 20:53:00,
2013-06-06 16:58:00,62.2,54.9,29.87,ENE,71,1.0,8.0,77,0.00,,,0.08,meteohub,2013-06-06 20:58:00,
2013-06-06 17:03:00,62.4,55.0,29.87,ENE,74,3.0,10.0,77,0.00,,,0.08,meteohub,2013-06-06 21:03:00,
2013-06-06 17:08:00,62.4,54.7,29.87,ENE,59,7.0,10.0,76,0.00,,,0.08,meteohub,2013-06-06 21:08:00,
2013-06-06 17:13:00,62.6,54.9,29.87,NNE,28,5.0,10.0,76,0.00,,,0.08,meteohub,2013-06-06 21:13:00,
2013-06-06 17:18:00,62.6,54.5,29.86,ENE,58,4.0,10.0,75,0.00,,,0.08,meteohub,2013-06-06 21:18:00,
2013-06-06 17:23:00,62.6,54.1,29.86,NE,56,2.0,13.0,74,0.00,,,0.08,meteohub,2013-06-06 21:23:00,
2013-06-06 17:28:00,62.6,54.1,29.86,NNE,18,7.0,13.0,74,0.00,,,0.08,meteohub,2013-06-06 21:28:00,
2013-06-06 17:33:00,62.6,54.5,29.86,North,349,2.0,11.0,75,0.00,,,0.08,meteohub,2013-06-06 21:33:00,
2013-06-06 17:38:00,62.6,54.5,29.86,NNE,28,7.0,11.0,75,0.00,,,0.08,meteohub,2013-06-06 21:38:00,
2013-06-06 17:43:00,62.6,54.5,29.86,ENE,65,6.0,12.0,75,0.00,,,0.08,meteohub,2013-06-06 21:43:00,
2013-06-06 17:49:00,62.4,54.7,29.86,East,82,4.0,12.0,76,0.00,,,0.08,meteohub,2013-06-06 21:49:00,
2013-06-06 17:54:00,62.4,54.7,29.86,East,94,7.0,12.0,76,0.00,,,0.08,meteohub,2013-06-06 21:54:00,
2013-06-06 17:59:00,62.4,55.0,29.86,ENE,63,3.0,10.0,77,0.00,,,0.08,meteohub,2013-06-06 21:59:00,
2013-06-06 18:04:00,62.2,54.5,29.86,NNE,23,4.0,13.0,76,0.00,,,0.08,meteohub,2013-06-06 22:04:00,
2013-06-06 18:09:00,62.2,54.5,29.86,NNE,12,6.0,13.0,76,0.00,,,0.08,meteohub,2013-06-06 22:09:00,
2013-06-06 18:14:00,62.2,54.5,29.86,East,81,5.0,13.0,76,0.00,,,0.08,meteohub,2013-06-06 22:14:00,
2013-06-06 18:19:00,62.2,54.5,29.86,NE,53,7.0,13.0,76,0.00,,,0.08,meteohub,2013-06-06 22:19:00,
2013-06-06 18:24:00,62.1,54.3,29.86,ENE,65,3.0,13.0,76,0.00,,,0.08,meteohub,2013-06-06 22:24:00,
2013-06-06 18:29:00,62.2,54.5,29.86,NE,50,3.0,13.0,76,0.00,,,0.08,meteohub,2013-06-06 22:29:00,
2013-06-06 18:34:00,62.2,53.8,29.86,ENE,77,9.0,13.0,74,0.00,,,0.08,meteohub,2013-06-06 22:34:00,
2013-06-06 18:39:00,62.1,52.9,29.86,ENE,63,5.0,12.0,72,0.00,,,0.08,meteohub,2013-06-06 22:39:00,
2013-06-06 18:44:00,62.1,53.2,29.86,ENE,77,6.0,12.0,73,0.00,,,0.08,meteohub,2013-06-06 22:44:00,
2013-06-06 18:49:00,61.9,53.1,29.86,ENE,65,6.0,13.0,73,0.00,,,0.08,meteohub,2013-06-06 22:49:00,
2013-06-06 18:54:00,61.9,53.4,29.86,NE,51,4.0,13.0,74,0.00,,,0.08,meteohub,2013-06-06 22:54:00,
2013-06-06 18:59:00,61.9,53.1,29.87,ENE,68,3.0,13.0,73,0.00,,,0.08,meteohub,2013-06-06 22:59:00,
2013-06-06 19:04:00,61.9,53.4,29.86,East,96,2.0,9.0,74,0.00,,,0.08,meteohub,2013-06-06 23:04:00,
2013-06-06 19:09:00,61.9,53.4,29.86,ENE,60,3.0,9.0,74,0.00,,,0.08,meteohub,2013-06-06 23:09:00,
2013-06-06 19:14:00,61.7,53.2,29.87,East,95,3.0,10.0,74,0.00,,,0.08,meteohub,2013-06-06 23:14:00,
2013-06-06 19:19:00,61.7,53.8,29.87,East,84,6.0,10.0,75,0.00,,,0.08,meteohub,2013-06-06 23:19:00,
2013-06-06 19:24:00,61.5,53.6,29.86,East,86,6.0,9.0,75,0.00,,,0.08,meteohub,2013-06-06 23:24:00,
2013-06-06 19:29:00,61.3,53.4,29.86,NNE,23,6.0,9.0,75,0.00,,,0.08,meteohub,2013-06-06 23:29:00,
2013-06-06 19:34:00,61.3,53.4,29.86,East,85,3.0,14.0,75,0.00,,,0.08,meteohub,2013-06-06 23:34:00,
2013-06-06 19:39:00,61.3,53.4,29.86,NNE,15,3.0,14.0,75,0.00,,,0.08,meteohub,2013-06-06 23:39:00,
2013-06-06 19:44:00,61.2,53.2,29.86,ENE,67,4.0,14.0,75,0.00,,,0.08,meteohub,2013-06-06 23:44:00,
2013-06-06 19:50:00,61.2,53.2,29.86,East,85,5.0,14.0,75,0.00,,,0.08,meteohub,2013-06-06 23:50:00,
2013-06-06 19:55:00,61.2,53.2,29.86,East,95,4.0,11.0,75,0.00,,,0.08,meteohub,2013-06-06 23:55:00,
2013-06-06 20:00:00,61.0,52.7,29.86,ENE,68,11.0,11.0,74,0.00,,,0.08,meteohub,2013-06-07 00:00:00,
2013-06-06 20:05:00,60.8,52.9,29.86,ENE,63,7.0,11.0,75,0.00,,,0.08,meteohub,2013-06-07 00:05:00,
2013-06-06 20:10:00,60.6,52.3,29.87,NE,46,3.0,11.0,74,0.00,,,0.08,meteohub,2013-06-07 00:10:00,
2013-06-06 20:15:00,60.6,52.3,29.87,ENE,71,5.0,11.0,74,0.00,,,0.08,meteohub,2013-06-07 00:15:00,
2013-06-06 20:20:00,60.4,51.8,29.87,East,92,5.0,9.0,73,0.00,,,0.08,meteohub,2013-06-07 00:20:00,
2013-06-06 20:25:00,60.4,52.2,29.88,ENE,71,4.0,9.0,74,0.00,,,0.08,meteohub,2013-06-07 00:25:00,
2013-06-06 20:30:00,60.3,51.6,29.88,ENE,71,5.0,9.0,73,0.00,,,0.08,meteohub,2013-06-07 00:30:00,
2013-06-06 20:35:00,60.3,51.6,29.88,ENE,71,3.0,11.0,73,0.00,,,0.08,meteohub,2013-06-07 00:35:00,
2013-06-06 20:40:00,60.1,51.4,29.88,NE,41,4.0,11.0,73,0.00,,,0.08,meteohub,2013-06-07 00:40:00,
2013-06-06 20:45:00,60.1,51.8,29.88,East,94,3.0,11.0,74,0.00,,,0.08,meteohub,2013-06-07 00:45:00,
2013-06-06 20:50:00,59.9,51.6,29.88,ENE,71,4.0,11.0,74,0.00,,,0.08,meteohub,2013-06-07 00:50:00,
2013-06-06 20:55:00,59.9,51.6,29.88,ENE,74,5.0,8.0,74,0.00,,,0.08,meteohub,2013-06-07 00:55:00,
2013-06-06 21:00:00,59.7,51.4,29.88,East,79,4.0,7.0,74,0.00,,,0.08,meteohub,2013-06-07 01:00:00,
2013-06-06 21:05:00,59.7,51.8,29.87,ENE,74,3.0,9.0,75,0.00,,,0.08,meteohub,2013-06-07 01:05:00,
2013-06-06 21:10:00,59.5,51.6,29.87,ENE,71,5.0,9.0,75,0.00,,,0.08,meteohub,2013-06-07 01:10:00,
2013-06-06 21:15:00,59.5,51.6,29.87,ENE,75,2.0,12.0,75,0.00,,,0.08,meteohub,2013-06-07 01:15:00,
2013-06-06 21:20:00,59.5,51.6,29.87,ENE,68,3.0,12.0,75,0.00,,,0.08,meteohub,2013-06-07 01:20:00,
2013-06-06 21:25:00,59.5,51.6,29.87,ENE,77,8.0,12.0,75,0.00,,,0.08,meteohub,2013-06-07 01:25:00,
2013-06-06 21:30:00,59.4,51.4,29.87,ENE,60,3.0,12.0,75,0.00,,,0.08,meteohub,2013-06-07 01:30:00,
2013-06-06 21:35:00,59.4,51.4,29.87,East,93,4.0,11.0,75,0.00,,,0.08,meteohub,2013-06-07 01:35:00,
2013-06-06 21:41:00,59.4,51.8,29.87,ENE,77,3.0,11.0,76,0.00,,,0.08,meteohub,2013-06-07 01:41:00,
2013-06-06 21:46:00,59.4,51.4,29.87,East,101,7.0,10.0,75,0.00,,,0.08,meteohub,2013-06-07 01:46:00,
2013-06-06 21:51:00,59.4,51.4,29.87,NNE,23,6.0,10.0,75,0.00,,,0.08,meteohub,2013-06-07 01:51:00,
2013-06-06 21:56:00,59.4,51.4,29.87,ENE,67,6.0,10.0,75,0.00,,,0.08,meteohub,2013-06-07 01:56:00,
2013-06-06 22:01:00,59.4,51.1,29.88,ENE,60,4.0,11.0,74,0.00,,,0.08,meteohub,2013-06-07 02:01:00,
2013-06-06 22:06:00,59.2,50.9,29.87,ENE,75,3.0,11.0,74,0.00,,,0.08,meteohub,2013-06-07 02:06:00,
2013-06-06 22:11:00,59.2,51.3,29.88,ENE,61,7.0,11.0,75,0.00,,,0.08,meteohub,2013-06-07 02:11:00,
2013-06-06 22:16:00,59.2,50.9,29.88,East,88,8.0,13.0,74,0.00,,,0.08,meteohub,2013-06-07 02:16:00,
2013-06-06 22:21:00,59.0,50.7,29.88,NE,43,7.0,13.0,74,0.00,,,0.08,meteohub,2013-06-07 02:21:00,
2013-06-06 22:27:00,59.0,50.7,29.88,ENE,72,2.0,13.0,74,0.00,,,0.08,meteohub,2013-06-07 02:27:00,
2013-06-06 22:32:00,59.0,50.7,29.89,East,84,5.0,13.0,74,0.00,,,0.08,meteohub,2013-06-07 02:32:00,
2013-06-06 22:37:00,59.0,50.7,29.89,ENE,74,7.0,11.0,74,0.00,,,0.08,meteohub,2013-06-07 02:37:00,
2013-06-06 22:42:00,59.0,50.7,29.89,East,82,5.0,11.0,74,0.00,,,0.08,meteohub,2013-06-07 02:42:00,
2013-06-06 22:47:00,59.0,50.4,29.89,East,79,6.0,11.0,73,0.00,,,0.08,meteohub,2013-06-07 02:47:00,
2013-06-06 22:52:00,59.0,50.4,29.89,NE,53,3.0,11.0,73,0.00,,,0.08,meteohub,2013-06-07 02:52:00,
2013-06-06 22:57:00,58.8,50.2,29.89,ENE,71,7.0,11.0,73,0.00,,,0.08,meteohub,2013-06-07 02:57:00,
2013-06-06 23:02:00,58.8,50.2,29.89,ENE,71,3.0,11.0,73,0.00,,,0.08,meteohub,2013-06-07 03:02:00,
2013-06-06 23:07:00,58.8,50.2,29.89,ENE,63,7.0,11.0,73,0.00,,,0.08,meteohub,2013-06-07 03:07:00,
2013-06-06 23:12:00,58.8,50.2,29.89,East,82,5.0,11.0,73,0.00,,,0.08,meteohub,2013-06-07 03:12:00,
2013-06-06 23:17:00,58.8,50.2,29.90,ENE,60,3.0,12.0,73,0.00,,,0.08,meteohub,2013-06-07 03:17:00,
2013-06-06 23:22:00,58.8,50.2,29.90,East,85,4.0,12.0,73,0.00,,,0.08,meteohub,2013-06-07 03:22:00,
2013-06-06 23:27:00,58.6,50.0,29.90,ENE,71,6.0,7.0,73,0.00,,,0.08,meteohub,2013-06-07 03:27:00,
2013-06-06 23:32:00,58.6,50.4,29.90,ENE,60,3.0,7.0,74,0.00,,,0.08,meteohub,2013-06-07 03:32:00,
2013-06-06 23:37:00,58.6,50.0,29.89,ENE,74,5.0,10.0,73,0.00,,,0.08,meteohub,2013-06-07 03:37:00,
2013-06-06 23:42:00,58.6,50.0,29.90,ENE,74,2.0,10.0,73,0.00,,,0.08,meteohub,2013-06-07 03:42:00,
2013-06-06 23:47:00,58.5,49.8,29.90,ENE,76,3.0,10.0,73,0.00,,,0.08,meteohub,2013-06-07 03:47:00,
2013-06-06 23:52:00,58.6,50.0,29.89,NE,56,6.0,10.0,73,0.00,,,0.08,meteohub,2013-06-07 03:52:00,
2013-06-06 23:57:00,58.6,50.0,29.89,ENE,78,4.0,8.0,73,0.00,,,0.08,meteohub,2013-06-07 03:57:00,